Time,TemperatureF,DewpointF,PressureIn,WindDirection,WindDirectionDegrees,WindSpeedMPH,WindSpeedGustMPH,Humidity,HourlyPrecipIn,Conditions,Clouds,dailyrainin,SoftwareType,DateUTC
2013-03-02 00:03:00,40.7,37.7,30.26,NE,45,0.4,0.4,89,0.00,,,0.00,WUHU216HW,2013-03-02 08:03:00,
2013-03-02 00:28:00,40.0,37.0,30.26,NE,45,0.4,0.4,89,0.00,,,0.00,WUHU216HW,2013-03-02 08:28:00,
2013-03-02 00:33:00,40.0,37.0,30.26,NE,45,0.4,0.4,89,0.00,,,0.00,WUHU216HW,2013-03-02 08:33:00,
2013-03-02 00:58:00,38.7,36.0,30.26,NE,45,0.0,0.0,90,0.00,,,0.00,WUHU216HW,2013-03-02 08:58:00,
2013-03-02 01:03:00,38.7,36.0,30.26,NE,45,0.0,0.0,90,0.00,,,0.00,WUHU216HW,2013-03-02 09:03:00,
2013-03-02 01:28:00,38.2,35.5,30.25,NE,45,0.0,0.0,90,0.00,,,0.00,WUHU216HW,2013-03-02 09:28:00,
2013-03-02 01:33:00,38.2,35.5,30.25,NE,45,0.0,0.0,90,0.00,,,0.00,WUHU216HW,2013-03-02 09:33:00,
2013-03-02 01:58:00,37.4,34.7,30.24,NE,45,0.0,0.0,90,0.00,,,0.00,WUHU216HW,2013-03-02 09:58:00,
2013-03-02 02:03:00,37.4,34.7,30.24,NE,45,0.0,0.0,90,0.00,,,0.00,WUHU216HW,2013-03-02 10:03:00,
2013-03-02 02:28:00,36.7,33.8,30.23,NE,45,0.7,0.7,89,0.00,,,0.00,WUHU216HW,2013-03-02 10:28:00,
2013-03-02 02:33:00,36.7,33.8,30.23,NE,45,0.7,0.7,89,0.00,,,0.00,WUHU216HW,2013-03-02 10:33:00,
2013-03-02 02:58:00,36.4,33.4,30.22,NE,45,0.0,0.0,89,0.00,,,0.00,WUHU216HW,2013-03-02 10:58:00,
2013-03-02 03:03:00,36.4,33.4,30.22,NE,45,0.0,0.0,89,0.00,,,0.00,WUHU216HW,2013-03-02 11:03:00,
2013-03-02 03:28:00,36.2,33.2,30.22,SW,225,0.0,0.0,89,0.00,,,0.00,WUHU216HW,2013-03-02 11:28:00,
2013-03-02 03:33:00,36.2,33.2,30.22,SW,225,0.0,0.0,89,0.00,,,0.00,WUHU216HW,2013-03-02 11:33:00,
2013-03-02 03:58:00,35.6,32.9,30.21,NE,45,0.0,0.0,90,0.00,,,0.00,WUHU216HW,2013-03-02 11:58:00,
2013-03-02 04:03:00,35.6,32.9,30.21,NE,45,0.0,0.0,90,0.00,,,0.00,WUHU216HW,2013-03-02 12:03:00,
2013-03-02 04:28:00,35.6,32.9,30.21,NE,45,0.0,0.0,90,0.00,,,0.00,WUHU216HW,2013-03-02 12:28:00,
2013-03-02 04:33:00,35.6,32.9,30.21,NE,45,0.0,0.0,90,0.00,,,0.00,WUHU216HW,2013-03-02 12:33:00,
2013-03-02 04:58:00,35.3,32.6,30.21,NE,45,0.4,0.4,90,0.00,,,0.00,WUHU216HW,2013-03-02 12:58:00,
2013-03-02 05:03:00,35.3,32.6,30.21,NE,45,0.4,0.4,90,0.00,,,0.00,WUHU216HW,2013-03-02 13:03:00,
2013-03-02 05:28:00,35.3,32.6,30.20,NNE,23,0.0,0.0,90,0.00,,,0.00,WUHU216HW,2013-03-02 13:28:00,
2013-03-02 05:33:00,35.3,32.6,30.20,NNE,23,0.0,0.0,90,0.00,,,0.00,WUHU216HW,2013-03-02 13:33:00,
2013-03-02 05:58:00,35.3,32.6,30.19,NNE,23,0.0,0.0,90,0.00,,,0.00,WUHU216HW,2013-03-02 13:58:00,
2013-03-02 06:03:00,35.3,32.6,30.19,NNE,23,0.0,0.0,90,0.00,,,0.00,WUHU216HW,2013-03-02 14:03:00,
2013-03-02 06:28:00,35.3,32.6,30.19,NE,45,0.0,0.0,90,0.00,,,0.00,WUHU216HW,2013-03-02 14:28:00,
2013-03-02 06:33:00,35.3,32.6,30.19,NE,45,0.0,0.0,90,0.00,,,0.00,WUHU216HW,2013-03-02 14:33:00,
2013-03-02 06:58:00,35.8,33.7,30.18,NNE,23,0.0,0.0,92,0.00,,,0.00,WUHU216HW,2013-03-02 14:58:00,
2013-03-02 07:03:00,35.8,33.7,30.18,NNE,23,0.0,0.0,92,0.00,,,0.00,WUHU216HW,2013-03-02 15:03:00,
2013-03-02 07:28:00,36.2,34.0,30.18,NE,45,0.0,0.0,92,0.00,,,0.00,WUHU216HW,2013-03-02 15:28:00,
2013-03-02 07:33:00,36.2,34.0,30.18,NE,45,0.0,0.0,92,0.00,,,0.00,WUHU216HW,2013-03-02 15:33:00,
2013-03-02 07:58:00,37.4,35.3,30.17,NNE,23,0.2,0.2,92,0.00,,,0.00,WUHU216HW,2013-03-02 15:58:00,
2013-03-02 08:03:00,37.4,35.3,30.17,NNE,23,0.2,0.2,92,0.00,,,0.00,WUHU216HW,2013-03-02 16:03:00,
2013-03-02 08:08:00,37.4,35.3,30.17,NNE,23,0.2,0.2,92,0.00,,,0.00,WUHU216HW,2013-03-02 16:08:00,
2013-03-02 08:28:00,38.2,35.7,30.18,NE,45,0.4,0.4,91,0.00,,,0.00,WUHU216HW,2013-03-02 16:28:00,
2013-03-02 08:33:00,38.2,35.7,30.18,NE,45,0.4,0.4,91,0.00,,,0.00,WUHU216HW,2013-03-02 16:33:00,
2013-03-02 08:58:00,38.7,36.3,30.17,NNE,23,0.0,0.0,91,0.00,,,0.00,WUHU216HW,2013-03-02 16:58:00,
2013-03-02 09:03:00,38.7,36.3,30.17,NNE,23,0.0,0.0,91,0.00,,,0.00,WUHU216HW,2013-03-02 17:03:00,
2013-03-02 09:08:00,38.7,36.3,30.17,NNE,23,0.0,0.0,91,0.00,,,0.00,WUHU216HW,2013-03-02 17:08:00,
2013-03-02 09:28:00,40.5,38.3,30.16,NNE,23,0.4,0.4,92,0.00,,,0.00,WUHU216HW,2013-03-02 17:28:00,
2013-03-02 09:33:00,40.5,38.3,30.16,NNE,23,0.4,0.4,92,0.00,,,0.00,WUHU216HW,2013-03-02 17:33:00,
2013-03-02 09:58:00,42.7,40.0,30.15,ENE,68,0.4,0.4,90,0.00,,,0.00,WUHU216HW,2013-03-02 17:58:00,
2013-03-02 10:03:00,42.8,40.1,30.15,ENE,68,0.4,0.4,90,0.00,,,0.00,WUHU216HW,2013-03-02 18:03:00,
2013-03-02 10:08:00,42.8,40.1,30.15,ENE,68,0.4,0.4,90,0.00,,,0.00,WUHU216HW,2013-03-02 18:08:00,
2013-03-02 10:28:00,44.8,41.5,30.14,NE,45,1.8,1.8,88,0.00,,,0.00,WUHU216HW,2013-03-02 18:28:00,
2013-03-02 10:33:00,44.8,41.5,30.14,NE,45,1.8,1.8,88,0.00,,,0.00,WUHU216HW,2013-03-02 18:33:00,
2013-03-02 10:58:00,46.4,42.5,30.11,ENE,68,1.6,1.6,86,0.00,,,0.00,WUHU216HW,2013-03-02 18:58:00,
2013-03-02 11:03:00,46.4,42.5,30.11,ENE,68,1.1,1.6,86,0.00,,,0.00,WUHU216HW,2013-03-02 19:03:00,
2013-03-02 11:08:00,46.4,42.5,30.11,ENE,68,1.1,1.1,86,0.00,,,0.00,WUHU216HW,2013-03-02 19:08:00,
2013-03-02 11:28:00,49.0,43.7,30.11,East,90,0.0,0.0,82,0.00,,,0.00,WUHU216HW,2013-03-02 19:28:00,
2013-03-02 11:33:00,49.0,43.7,30.11,East,90,0.0,0.0,82,0.00,,,0.00,WUHU216HW,2013-03-02 19:33:00,
2013-03-02 11:58:00,50.6,44.6,30.07,NNE,23,1.1,1.1,80,0.00,,,0.00,WUHU216HW,2013-03-02 19:58:00,
2013-03-02 12:03:00,50.6,44.6,30.07,NNE,23,1.1,1.1,80,0.00,,,0.00,WUHU216HW,2013-03-02 20:03:00,
2013-03-02 12:28:00,53.1,44.3,30.07,South,180,4.0,4.0,72,0.00,,,0.00,WUHU216HW,2013-03-02 20:28:00,
2013-03-02 12:33:00,53.1,44.3,30.07,South,180,4.0,4.0,72,0.00,,,0.00,WUHU216HW,2013-03-02 20:33:00,
2013-03-02 12:58:00,54.7,44.4,30.05,SSW,203,3.8,3.8,68,0.00,,,0.00,WUHU216HW,2013-03-02 20:58:00,
2013-03-02 13:03:00,54.7,44.4,30.05,SSW,203,3.8,3.8,68,0.00,,,0.00,WUHU216HW,2013-03-02 21:03:00,
2013-03-02 13:28:00,55.6,43.6,30.04,SSW,203,3.1,3.1,64,0.00,,,0.00,WUHU216HW,2013-03-02 21:28:00,
2013-03-02 13:33:00,55.6,43.6,30.04,SSW,203,3.1,3.1,64,0.00,,,0.00,WUHU216HW,2013-03-02 21:33:00,
2013-03-02 13:58:00,55.8,43.7,30.03,SSW,203,6.0,6.0,64,0.00,,,0.00,WUHU216HW,2013-03-02 21:58:00,
2013-03-02 14:03:00,55.8,43.7,30.03,SSW,203,6.0,6.0,64,0.00,,,0.00,WUHU216HW,2013-03-02 22:03:00,
2013-03-02 14:28:00,55.8,43.4,30.02,SSW,203,6.3,6.3,63,0.00,,,0.00,WUHU216HW,2013-03-02 22:28:00,
2013-03-02 14:33:00,55.8,43.4,30.02,SSW,203,6.3,6.3,63,0.00,,,0.00,WUHU216HW,2013-03-02 22:33:00,
2013-03-02 14:58:00,55.8,43.7,30.01,SSW,203,3.1,3.1,64,0.00,,,0.00,WUHU216HW,2013-03-02 22:58:00,
2013-03-02 15:03:00,55.8,43.7,30.01,SSW,203,3.1,3.1,64,0.00,,,0.00,WUHU216HW,2013-03-02 23:03:00,
2013-03-02 15:28:00,55.8,44.2,30.00,South,180,2.5,2.5,65,0.00,,,0.00,WUHU216HW,2013-03-02 23:28:00,
2013-03-02 15:33:00,55.8,44.2,30.00,South,180,2.5,2.5,65,0.00,,,0.00,WUHU216HW,2013-03-02 23:33:00,
2013-03-02 15:58:00,55.6,43.2,29.99,SW,225,4.3,4.3,63,0.00,,,0.00,WUHU216HW,2013-03-02 23:58:00,
2013-03-02 16:03:00,55.6,43.2,29.99,SW,225,4.3,4.3,63,0.00,,,0.00,WUHU216HW,2013-03-03 00:03:00,
2013-03-02 16:28:00,54.9,43.8,29.98,SSW,203,0.0,0.0,66,0.00,,,0.00,WUHU216HW,2013-03-03 00:28:00,
2013-03-02 16:33:00,54.9,43.8,29.98,SSW,203,0.0,0.0,66,0.00,,,0.00,WUHU216HW,2013-03-03 00:33:00,
2013-03-02 16:58:00,54.0,43.7,29.97,South,180,0.4,0.4,68,0.00,,,0.00,WUHU216HW,2013-03-03 00:58:00,
2013-03-02 17:03:00,54.0,43.7,29.97,South,180,0.0,0.4,68,0.00,,,0.00,WUHU216HW,2013-03-03 01:03:00,
2013-03-02 17:08:00,54.0,43.7,29.97,South,180,0.0,0.0,68,0.00,,,0.00,WUHU216HW,2013-03-03 01:08:00,
2013-03-02 17:28:00,53.1,43.7,29.97,SSW,203,0.2,0.2,70,0.00,,,0.00,WUHU216HW,2013-03-03 01:28:00,
2013-03-02 17:33:00,53.1,43.7,29.97,SSW,203,0.2,0.2,70,0.00,,,0.00,WUHU216HW,2013-03-03 01:33:00,
2013-03-02 17:58:00,51.3,42.9,29.96,NNE,23,0.4,0.4,73,0.00,,,0.00,WUHU216HW,2013-03-03 01:58:00,
2013-03-02 18:03:00,51.3,42.9,29.96,NNE,23,0.4,0.4,73,0.00,,,0.00,WUHU216HW,2013-03-03 02:03:00,
2013-03-02 18:08:00,51.3,42.9,29.96,NNE,23,0.4,0.4,73,0.00,,,0.00,WUHU216HW,2013-03-03 02:08:00,
2013-03-02 18:28:00,50.0,42.4,29.96,NNE,23,0.0,0.0,75,0.00,,,0.00,WUHU216HW,2013-03-03 02:28:00,
2013-03-02 18:33:00,50.0,42.4,29.96,NNE,23,0.0,0.0,75,0.00,,,0.00,WUHU216HW,2013-03-03 02:33:00,
2013-03-02 18:58:00,49.5,42.8,29.94,WSW,248,0.9,0.9,78,0.00,,,0.00,WUHU216HW,2013-03-03 02:58:00,
2013-03-02 19:03:00,49.5,42.8,29.94,SW,225,0.4,0.9,78,0.00,,,0.00,WUHU216HW,2013-03-03 03:03:00,
2013-03-02 19:08:00,49.5,42.8,29.94,SW,225,0.4,0.9,78,0.00,,,0.00,WUHU216HW,2013-03-03 03:08:00,
2013-03-02 19:28:00,51.1,43.1,29.93,South,180,6.3,6.3,74,0.00,,,0.00,WUHU216HW,2013-03-03 03:28:00,
2013-03-02 19:33:00,51.1,43.1,29.93,South,180,6.3,6.3,74,0.00,,,0.00,WUHU216HW,2013-03-03 03:33:00,
2013-03-02 19:58:00,51.1,42.8,29.91,WSW,248,0.0,0.0,73,0.00,,,0.00,WUHU216HW,2013-03-03 03:58:00,
2013-03-02 20:03:00,51.1,42.8,29.91,WSW,248,0.0,0.0,73,0.00,,,0.00,WUHU216HW,2013-03-03 04:03:00,
2013-03-02 20:28:00,50.4,42.4,29.91,South,180,0.0,0.0,74,0.00,,,0.00,WUHU216HW,2013-03-03 04:28:00,
2013-03-02 20:33:00,50.4,42.4,29.91,South,180,0.0,0.0,74,0.00,,,0.00,WUHU216HW,2013-03-03 04:33:00,
2013-03-02 20:58:00,50.2,42.6,29.90,WSW,248,3.6,3.6,75,0.00,,,0.00,WUHU216HW,2013-03-03 04:58:00,
2013-03-02 21:00:00,50.2,42.6,29.90,WSW,248,3.6,3.6,75,0.00,,,0.00,WUHU216HW,2013-03-03 05:00:00,
2013-03-02 21:05:00,50.2,42.6,29.90,WSW,248,3.6,3.6,75,0.00,,,0.00,WUHU216HW,2013-03-03 05:05:00,
2013-03-02 21:28:00,50.0,42.4,29.90,WSW,248,3.4,3.4,75,0.00,,,0.00,WUHU216HW,2013-03-03 05:28:00,
2013-03-02 21:33:00,50.0,42.4,29.90,WSW,248,3.4,3.4,75,0.00,,,0.00,WUHU216HW,2013-03-03 05:33:00,
2013-03-02 21:58:00,49.5,41.9,29.90,SSW,203,5.4,5.4,75,0.00,,,0.00,WUHU216HW,2013-03-03 05:58:00,
2013-03-02 22:03:00,49.5,41.9,29.90,SSW,203,5.4,5.4,75,0.00,,,0.00,WUHU216HW,2013-03-03 06:03:00,
2013-03-02 22:28:00,49.0,41.7,29.89,SSE,158,6.7,6.7,76,0.00,,,0.00,WUHU216HW,2013-03-03 06:28:00,
2013-03-02 22:33:00,49.0,41.7,29.89,SSE,158,6.7,6.7,76,0.00,,,0.00,WUHU216HW,2013-03-03 06:33:00,
2013-03-02 22:58:00,48.2,41.0,29.89,WSW,248,4.7,4.7,76,0.00,,,0.00,WUHU216HW,2013-03-03 06:58:00,
2013-03-02 23:03:00,48.2,41.0,29.89,WSW,248,4.7,4.7,76,0.00,,,0.00,WUHU216HW,2013-03-03 07:03:00,
2013-03-02 23:28:00,47.9,40.6,29.88,WSW,248,4.3,4.3,76,0.00,,,0.00,WUHU216HW,2013-03-03 07:28:00,
2013-03-02 23:33:00,47.9,40.6,29.88,WSW,248,4.3,4.3,76,0.00,,,0.00,WUHU216HW,2013-03-03 07:33:00,
2013-03-02 23:58:00,47.2,40.0,29.88,WSW,248,2.5,2.5,76,0.00,,,0.00,WUHU216HW,2013-03-03 07:58:00,